#timestamp,LO_Frequency,Hit,StdDev 
1539835215.0,286046999.3,N
1539835216.0,286046999.3,N
1539835235.8,286046998.4,Y
1539835255.6,286046998.8,P
1539835275.5,286046998.1,P
1539835295.3,286047001.1,N
1539835315.1,286046998.4,N
1539835335.9,286046998.4,N
1539835355.7,286046998.9,N
1539835375.6,286046998.8,N
1539835395.4,286047001.1,N
1539835415.2,286046998.4,N
1539835435.1,286046998.7,N
1539835436.0,286046998.7,N
1539835455.8,286046998.5,N
1539835475.6,286046998.4,N
1539835495.5,286046999.1,N
1539835515.3,286046999.0,N
1539835535.2,286046996.6,Y
1539835555.9,286046999.1,P
1539835575.7,286046999.4,P
1539835595.6,286046999.3,P
1539835615.4,286046999.3,Y
1539835635.3,286047000.3,P
1539835655.1,286047001.1,N
1539835656.0,286047001.1,N
1539835675.8,286047000.5,N
1539835695.7,286047000.0,N
1539835715.5,286046998.8,N
1539835735.3,286047000.7,N
1539835755.2,286046998.3,N
1539835775.0,286046999.0,N
1539835775.9,286046999.0,N
1539835795.8,286046998.6,N
1539835815.6,286047001.1,N
1539835835.4,286046998.4,N
1539835855.3,286047000.1,N
1539835875.1,286046999.9,N
1539835895.8,286046999.9,N
1539835915.7,286047000.4,N
1539835935.5,286047001.1,N
1539835955.4,286047000.9,N
1539835975.2,286046999.4,N
1539835995.0,286046998.2,N
1539835995.9,286046998.2,N
1539836015.8,286047001.2,N
1539836035.6,286047001.2,N
1539836055.4,286046998.5,N
1539836075.3,286046998.2,N
1539836095.1,286046998.3,N
1539836115.9,286046998.1,N
1539836135.7,286046998.8,N
1539836155.5,286047000.4,N
1539836175.4,286047001.0,N
1539836195.2,286046998.4,N
1539836215.0,286046998.3,N
1539836215.9,286046998.3,N
1539836235.8,286047001.0,N
1539836255.6,286047000.2,N
1539836275.5,286046999.8,N
1539836295.3,286047002.4,N
1539836315.1,286047000.3,N
1539836335.9,286047001.6,N
1539836355.7,286047002.7,N
1539836375.5,286047002.7,N
1539836395.4,286047002.4,N
1539836415.2,286047000.6,N
1539836435.1,286046999.8,N
1539836436.0,286046999.8,N
1539836455.8,286046999.8,N
1539836475.6,286047000.1,N
1539836495.5,286047000.1,N
1539836515.3,286047000.9,N
1539836535.2,286046999.8,N
1539836555.9,286047000.9,N
1539836575.7,286047001.2,N
1539836595.6,286047000.3,N
1539836615.4,286047000.5,N
1539836635.2,286047002.6,N
1539836655.1,286047002.6,N
1539836656.0,286047002.6,N
1539836675.8,286047002.3,N
1539836695.7,286047002.3,N
1539836715.5,286047002.2,N
1539836735.4,286047002.2,N
1539836755.2,286047002.5,N
1539836775.0,286047002.8,N
1539836775.9,286047002.8,N
1539836795.8,286047002.8,N
1539836815.6,286046999.7,N
1539836835.4,286046999.8,N
1539836855.3,286046999.7,N
1539836875.1,286046999.8,N
1539836895.9,286046999.7,N
1539836915.7,286047000.1,N
1539836935.5,286047000.6,N
1539836955.4,286047000.6,N
1539836975.2,286047000.8,N
1539836995.1,286046998.8,N
1539836996.0,286046998.8,N
1539837015.8,286046998.5,N
1539837035.6,286047002.7,N
1539837055.5,286047002.8,N
1539837075.3,286047001.3,N
1539837095.2,286047001.3,N
1539837115.9,286047002.5,N
1539837135.7,286047002.5,N
1539837155.6,286047000.1,N
1539837175.4,286047002.4,N
1539837195.2,286047002.7,N
1539837215.1,286047002.5,N
1539837216.0,286047002.5,N
1539837235.8,286047002.3,N
1539837255.7,286047002.1,N
1539837275.5,286047001.6,N
1539837295.3,286047002.4,N
1539837315.2,286047000.2,N
1539837335.0,286047000.4,N
1539837335.9,286047000.4,N
1539837355.8,286046999.9,N
1539837375.6,286047000.9,N
1539837395.4,286047000.0,N
1539837415.3,286047000.6,N
1539837435.1,286047002.3,N
1539837455.9,286047001.5,N
1539837475.7,286047001.3,N
1539837495.5,286047002.4,N
1539837515.4,286047002.0,N
1539837535.2,286047004.3,Y
1539837555.0,286047002.0,P
1539837555.9,286047002.0,P
1539837575.8,286047002.2,P
1539837595.6,286046999.7,N
1539837615.5,286047002.5,N
1539837635.3,286047002.3,N
1539837655.1,286047002.4,N
1539837675.9,286047001.6,N
1539837695.7,286047002.6,Y
1539837715.5,286046998.2,P
1539837735.4,286046998.3,N
1539837755.2,286046999.0,N
1539837775.1,286046998.7,N
1539837776.0,286046998.7,N
1539837795.8,286046998.6,N
1539837815.6,286046998.2,N
1539837835.5,286046998.1,N
1539837855.3,286047000.4,N
1539837875.1,286046999.8,N
1539837895.9,286047001.0,N
1539837915.7,286047000.3,N
1539837935.6,286046998.3,N
1539837955.4,286047000.2,N
1539837975.2,286047001.2,N
1539837995.1,286046998.2,N
1539837996.0,286046998.2,N
1539838015.8,286047000.5,N
1539838035.7,286046998.2,N
1539838055.5,286047000.4,N
1539838075.3,286047000.7,N
1539838095.2,286047001.1,N
1539838115.0,286046998.1,N
1539838115.9,286046998.1,N
1539838135.7,286046999.9,N
1539838155.6,286047001.2,N
1539838175.4,286047000.5,N
1539838195.3,286046998.6,N
1539838215.1,286046998.3,N
1539838216.0,286046998.3,N
1539838235.8,286047000.8,N
1539838255.7,286046998.1,N
1539838275.5,286046999.0,N
1539838295.4,286046996.6,N
1539838315.2,286046998.3,N
1539838335.0,286046998.7,N
1539838335.9,286046998.7,N
1539838355.8,286046998.2,N
1539838375.6,286047000.7,N
1539838395.5,286047000.7,N
1539838415.3,286047000.9,N
1539838435.1,286046999.9,N
1539838455.9,286047001.2,N
1539838475.7,286047000.9,N
1539838495.5,286047000.7,N
1539838515.4,286046998.2,N
1539838535.2,286046999.0,N
1539838555.1,286046997.0,N
1539838556.0,286046997.0,N
1539838575.8,286046998.4,N
1539838595.6,286046998.4,N
1539838615.5,286046998.3,N
1539838635.3,286047000.8,N
1539838655.2,286046998.5,N
1539838675.9,286046998.5,N
1539838695.9,286046998.2,N
1539838715.7,286046998.4,N
1539838735.6,286046998.8,N
1539838755.4,286047001.1,N
1539838775.2,286047000.3,N
1539838795.1,286046998.2,N
1539838796.0,286046998.2,N
